Location: Newark
(47.5833°N, 8.1500°E)
Time: 20:36:19
(UTC+00:00)

Tiros 1 despin weight - Pass Details

Date: 05 November 2020
Orbit: 593 x 642 km, 48.2° (Epoch: 03 December)

Event Time Altitude Azimuth Distance (km) Brightness Sun altitude
Rises 21:31:27 0° 244° (WSW) 2,894 - -52.4°
Reaches altitude 10° 21:33:47 10° 242° (WSW) 1,981 - -52.6°
Maximum altitude 21:38:19 67° 160° (SSE) 666 - -53.1°
Drops below altitude 10° 21:42:46 10° 78° (ENE) 1,956 - -53.6°
Sets 21:45:03 0° 76° (ENE) 2,854 - -53.8°
